Satellite-Ground Cal/Val Site Overpasses Predictions

Prediction of Satellite NPP Overpassing Cal/Val Site: Antarctic Dome C

Ground Cal/Val Site Location: Latitude: -75.10, Longitude: 123.35; Satellite-Ground Site NADIR distance within 100 km.

Table of predicted overpasses for the next 14.0 days since TLE Epoch: 1/30/2012
Interval Starting Time Ending Time Minimum Distance Time Minimum Distance (km)
1 02/01/2012 14:54:03 02/01/2012 14:54:32 02/01/2012 14:54:17 16.88
2 02/02/2012 14:35:21 02/02/2012 14:35:33 02/02/2012 14:35:27 89.98
3 02/03/2012 07:36:52 02/03/2012 07:37:19 02/03/2012 07:37:06 36.86
4 02/04/2012 07:18:06 02/04/2012 07:18:26 02/04/2012 07:18:16 73.30
5 02/06/2012 15:00:19 02/06/2012 15:00:44 02/06/2012 15:00:31 54.05
6 02/07/2012 14:41:29 02/07/2012 14:41:53 02/07/2012 14:41:41 55.05
7 02/08/2012 07:43:09 02/08/2012 07:43:29 02/08/2012 07:43:19 72.19
8 02/09/2012 07:24:15 02/09/2012 07:24:43 02/09/2012 07:24:29 35.85
9 02/11/2012 15:06:39 02/11/2012 15:06:50 02/11/2012 15:06:44 91.79
